Meteo orario Koziniec

Oggi, 2 Marzo, Martedi

Tempo Temperatura Precipitazioni Vento Pressione Umidità
00:00 +2°C° 0 mm 1 m/s 742 mm Hg 87%
01:00 +2°C° 0 mm 1 m/s 742 mm Hg 87%
02:00 +2°C° 0 mm 1 m/s 742 mm Hg 85%
03:00 +2°C° 0 mm 1 m/s 742 mm Hg 84%
04:00 +2°C° 0 mm 1 m/s 742 mm Hg 82%
05:00 +2°C° 0 mm 1 m/s 742 mm Hg 79%
06:00 +2°C° 0 mm 1 m/s 742 mm Hg 77%
07:00 +2°C° 0 mm 1 m/s 742 mm Hg 75%
08:00 +4°C° 0 mm 1 m/s 742 mm Hg 67%
09:00 +6°C° 0 mm 1 m/s 742 mm Hg 59%
10:00 +8°C° 0 mm 2 m/s 742 mm Hg 51%
11:00 +9°C° 0 mm 2 m/s 742 mm Hg 50%
12:00 +10°C° 0 mm 2 m/s 742 mm Hg 49%
13:00 +12°C° 0 mm 2 m/s 742 mm Hg 49%
14:00 +10°C° 0 mm 2 m/s 741 mm Hg 54%
15:00 +10°C° 0 mm 2 m/s 741 mm Hg 58%
16:00 +10°C° 0 mm 1 m/s 741 mm Hg 62%
17:00 +9°C° 0 mm 1 m/s 741 mm Hg 66%
18:00 +7°C° 0 mm 1 m/s 741 mm Hg 69%
19:00 +5°C° 0 mm 2 m/s 741 mm Hg 73%
20:00 +6°C° 0 mm 1 m/s 741 mm Hg 73%
21:00 +5°C° 0 mm 1 m/s 741 mm Hg 73%
22:00 +5°C° 0 mm 1 m/s 741 mm Hg 72%
23:00 +5°C° 0 mm 1 m/s 741 mm Hg 72%

Domani, 3 Marzo, Mercoledi

Tempo Temperatura Precipitazioni Vento Pressione Umidità
00:00 +4°C° 0 mm 1 m/s 741 mm Hg 72%
01:00 +4°C° 0 mm 1 m/s 741 mm Hg 72%
02:00 +4°C° 0 mm 1 m/s 740 mm Hg 72%
03:00 +4°C° 0 mm 1 m/s 740 mm Hg 71%
04:00 +4°C° 0 mm 1 m/s 740 mm Hg 70%
05:00 +4°C° 0 mm 1 m/s 740 mm Hg 69%
06:00 +4°C° 0 mm 1 m/s 739 mm Hg 68%
07:00 +4°C° 0 mm 1 m/s 739 mm Hg 67%
08:00 +6°C° 0 mm 1 m/s 739 mm Hg 61%
09:00 +8°C° 0 mm 1 m/s 739 mm Hg 56%
10:00 +10°C° 0 mm 0 m/s 739 mm Hg 50%
11:00 +11°C° 0 mm 0 m/s 739 mm Hg 47%
12:00 +13°C° 0 mm 1 m/s 739 mm Hg 44%
13:00 +14°C° 0 mm 1 m/s 738 mm Hg 41%
14:00 +14°C° 0 mm 1 m/s 738 mm Hg 45%
15:00 +13°C° 0 mm 1 m/s 737 mm Hg 49%
16:00 +13°C° 0 mm 1 m/s 736 mm Hg 53%
17:00 +11°C° 0 mm 1 m/s 736 mm Hg 59%
18:00 +9°C° 0 mm 1 m/s 736 mm Hg 65%
19:00 +6°C° 0 mm 2 m/s 735 mm Hg 70%
20:00 +6°C° 0 mm 2 m/s 735 mm Hg 72%
21:00 +5°C° 0 mm 2 m/s 735 mm Hg 73%
22:00 +4°C° 0 mm 3 m/s 734 mm Hg 75%
23:00 +3°C° 0 mm 3 m/s 734 mm Hg 76%

Dopodomani, 4 Marzo, Giovedi

Tempo Temperatura Precipitazioni Vento Pressione Umidità
00:00 +3°C° 0 mm 3 m/s 733 mm Hg 78%
01:00 +3°C° 0 mm 3 m/s 733 mm Hg 79%
02:00 +3°C° 0 mm 3 m/s 732 mm Hg 80%
03:00 +3°C° 0 mm 3 m/s 732 mm Hg 80%
04:00 +3°C° 0 mm 3 m/s 731 mm Hg 81%
05:00 +3°C° 0 mm 3 m/s 731 mm Hg 81%
06:00 +3°C° 0 mm 3 m/s 731 mm Hg 81%
07:00 +3°C° 0 mm 3 m/s 730 mm Hg 81%
08:00 +4°C° 0 mm 3 m/s 730 mm Hg 74%
09:00 +7°C° 0 mm 3 m/s 730 mm Hg 68%
10:00 +8°C° 0 mm 4 m/s 730 mm Hg 61%
11:00 +10°C° 0 mm 4 m/s 729 mm Hg 59%
12:00 +11°C° 0 mm 4 m/s 729 mm Hg 58%
13:00 +12°C° 0 mm 5 m/s 728 mm Hg 56%
14:00 +12°C° 0 mm 4 m/s 728 mm Hg 59%
15:00 +11°C° 0 mm 4 m/s 727 mm Hg 62%
16:00 +11°C° 0 mm 3 m/s 726 mm Hg 65%
17:00 +9°C° 0 mm 3 m/s 726 mm Hg 69%
18:00 +8°C° 0 mm 3 m/s 726 mm Hg 74%
19:00 +7°C° 0 mm 2 m/s 726 mm Hg 78%
20:00 +7°C° 0.1 mm 2 m/s 726 mm Hg 79%
21:00 +7°C° 0.1 mm 2 m/s 725 mm Hg 81%
22:00 +7°C° 0.1 mm 2 m/s 725 mm Hg 82%
23:00 +5°C° 1.4 mm 2 m/s 725 mm Hg 86%

5 Marzo, Venerdi

Tempo Temperatura Precipitazioni Vento Pressione Umidità
00:00 +4°C° 1.4 mm 2 m/s 725 mm Hg 91%
01:00 +3°C° 1.4 mm 2 m/s 725 mm Hg 96%
02:00 +3°C° 0.9 mm 2 m/s 725 mm Hg 96%
03:00 +2°C° 0.9 mm 2 m/s 726 mm Hg 96%
04:00 +1°C° 0.9 mm 2 m/s 726 mm Hg 97%
05:00 +1°C° 0.6 mm 2 m/s 726 mm Hg 96%
06:00 +1°C° 0.6 mm 2 m/s 727 mm Hg 95%
07:00 -1°C° 0.6 mm 3 m/s 727 mm Hg 95%
08:00 -1°C° 0.4 mm 3 m/s 728 mm Hg 91%
09:00 -1°C° 0.4 mm 3 m/s 728 mm Hg 88%
10:00 -1°C° 0.4 mm 3 m/s 729 mm Hg 84%
11:00 0°C° 0.2 mm 3 m/s 729 mm Hg 79%
12:00 0°C° 0.2 mm 3 m/s 729 mm Hg 75%
13:00 0°C° 0.2 mm 3 m/s 730 mm Hg 70%
14:00 0°C° 0.1 mm 3 m/s 730 mm Hg 66%
15:00 0°C° 0.1 mm 3 m/s 730 mm Hg 62%
16:00 0°C° 0.1 mm 3 m/s 731 mm Hg 59%
17:00 -1°C° 0 mm 2 m/s 731 mm Hg 63%
18:00 -2°C° 0 mm 2 m/s 732 mm Hg 68%
19:00 -1°C° 0 mm 1 m/s 733 mm Hg 73%
20:00 -1°C° 0 mm 1 m/s 733 mm Hg 73%
21:00 -1°C° 0 mm 1 m/s 734 mm Hg 73%
22:00 -1°C° 0 mm 1 m/s 734 mm Hg 73%
23:00 -1°C° 0 mm 1 m/s 734 mm Hg 74%

6 Marzo, Sabato

Tempo Temperatura Precipitazioni Vento Pressione Umidità
00:00 -1°C° 0 mm 1 m/s 735 mm Hg 75%
01:00 -1°C° 0 mm 1 m/s 735 mm Hg 77%
02:00 -3°C° 0.1 mm 2 m/s 735 mm Hg 78%
03:00 -3°C° 0.1 mm 2 m/s 736 mm Hg 80%
04:00 -3°C° 0.1 mm 2 m/s 736 mm Hg 82%
05:00 -4°C° 0.2 mm 2 m/s 736 mm Hg 81%
06:00 -4°C° 0.2 mm 2 m/s 737 mm Hg 80%
07:00 -5°C° 0.2 mm 3 m/s 737 mm Hg 79%
08:00 -4°C° 0 mm 3 m/s 738 mm Hg 71%
09:00 -2°C° 0 mm 3 m/s 738 mm Hg 63%
10:00 -2°C° 0 mm 3 m/s 738 mm Hg 55%
11:00 -1°C° 0 mm 3 m/s 738 mm Hg 53%
12:00 -1°C° 0 mm 3 m/s 738 mm Hg 52%
13:00 -1°C° 0 mm 3 m/s 738 mm Hg 51%
14:00 -1°C° 0 mm 2 m/s 738 mm Hg 51%
15:00 -1°C° 0 mm 2 m/s 738 mm Hg 52%
16:00 -1°C° 0 mm 2 m/s 738 mm Hg 53%
17:00 -2°C° 0 mm 2 m/s 738 mm Hg 58%
18:00 -3°C° 0 mm 2 m/s 738 mm Hg 63%
19:00 -4°C° 0 mm 2 m/s 738 mm Hg 68%
20:00 -4°C° 0 mm 2 m/s 738 mm Hg 68%
21:00 -4°C° 0 mm 2 m/s 738 mm Hg 69%
22:00 -4°C° 0 mm 2 m/s 738 mm Hg 69%
23:00 -4°C° 0 mm 2 m/s 737 mm Hg 68%

7 Marzo, Domenica

Tempo Temperatura Precipitazioni Vento Pressione Umidità
00:00 -5°C° 0 mm 3 m/s 737 mm Hg 67%
01:00 -5°C° 0 mm 3 m/s 737 mm Hg 66%
02:00 -5°C° 0 mm 3 m/s 736 mm Hg 65%
03:00 -5°C° 0 mm 3 m/s 736 mm Hg 65%
04:00 -5°C° 0 mm 3 m/s 735 mm Hg 64%
05:00 -5°C° 0 mm 3 m/s 735 mm Hg 62%
06:00 -5°C° 0 mm 3 m/s 735 mm Hg 61%
07:00 -5°C° 0 mm 3 m/s 734 mm Hg 60%
08:00 -3°C° 0 mm 4 m/s 734 mm Hg 54%
09:00 -2°C° 0 mm 4 m/s 734 mm Hg 48%
10:00 0°C° 0 mm 5 m/s 734 mm Hg 42%
11:00 +1°C° 0 mm 5 m/s 733 mm Hg 42%
12:00 +1°C° 0 mm 5 m/s 733 mm Hg 41%
13:00 +2°C° 0 mm 5 m/s 732 mm Hg 41%
14:00 +2°C° 0 mm 5 m/s 731 mm Hg 43%
15:00 +2°C° 0 mm 5 m/s 731 mm Hg 45%
16:00 +1°C° 0 mm 5 m/s 730 mm Hg 48%
17:00 0°C° 0 mm 4 m/s 730 mm Hg 52%
18:00 -1°C° 0 mm 4 m/s 730 mm Hg 57%
19:00 -1°C° 0 mm 3 m/s 730 mm Hg 61%
20:00 -2°C° 0 mm 3 m/s 730 mm Hg 63%
21:00 -2°C° 0 mm 3 m/s 730 mm Hg 64%
22:00 -2°C° 0 mm 2 m/s 730 mm Hg 66%
23:00 -2°C° 0 mm 2 m/s 730 mm Hg 69%
Mostrare altro